Regional Weather Roundup
Issued by NWS

Home | Current Version | Previous Version | Text Only | Print | Product List | Glossary On
Versions: 1 2 3 4 5 6 7 8 9 10 11 12 13 14 15 16 17 18 19 20 21 22 23 24 25 26 27 28 29 30 31 32 33 34 35 36 37 38 39 40 41 42 43 44 45 46 47 48 49 50
000
ASUS44 KFWD 272001
RWRTX
NORTH TEXAS HOURLY WEATHER ROUNDUP
NATIONAL WEATHER SERVICE FORT WORTH TX
300 PM CDT WED JUL 27 2016

NOTE: "FAIR" INDICATES FEW OR NO CLOUDS BELOW 12,000 FEET WITH NO
SIGNIFICANT WEATHER AND/OR OBSTRUCTIONS TO VISIBILITY.

TXZ118-119-272100-
DALLAS/FORT WORTH METROPLEX

CITY           SKY/WX    TMP DP  RH WIND       PRES   REMARKS
DFW AIRPORT    PTSUNNY   95  69  42 W3        29.90F HX 100
DALLAS LOVE    CLOUDY    95  70  44 VRB5      29.89F HX 101
FTW MEACHAM    MOSUNNY   95  71  45 VRB3      29.90F HX 102
DAL-EXECUTIVE  MOSUNNY   94  67  41 VRB3      29.90F HX  97
FTW-ALLIANCE   CLOUDY    95  67  39 VRB3      29.91F HX  99
FTW-NAS-JRB    CLOUDY    95  72  47 VRB5      29.91F HX 103
FTW-SPINKS     MOSUNNY   97  70  41 SE3       29.92F HX 103
ARLINGTON      MOSUNNY   95  68  41 SE7       29.90F HX  99
GRAND PRAIRIE  SUNNY     95  64  36 SW7       29.91F HX  97
ADDISON        PTSUNNY   91  72  52 E10       29.91F THUNDER HX  98
LANCASTER      MOSUNNY   97  67  37 S6        29.91F HX 101
$$

TXZ091>094-102>105-117-120-121-131>134-272100-
NORTH CENTRAL TEXAS

CITY           SKY/WX    TMP DP  RH WIND       PRES   REMARKS
SHRMAN/DENISON NOT AVBL
BOWIE          CLOUDY    90  72  55 E8G16     29.93S HX  97
BRIDGEPORT     MOSUNNY   93  74  54 SE6       29.93F HX 104
DECATUR        LGT RAIN  83  71  69 E13       29.94R
DENTON         TSTM      79  71  76 N25G31    29.93R
MCKINNEY       PTSUNNY   81  75  82 W3        29.92F
GREENVILLE     PTSUNNY   90  70  51 N7        29.91F HX  95
ROCKWALL       CLOUDY    87  74  63 NE17      29.91S HX  95
TERRELL        SUNNY     95  70  44 VRB6      29.90F HX 101
WAXAHACHIE     PTSUNNY   95  71  46 E5        29.92F HX 103
CLEBURNE       MOSUNNY   93  70  46 MISG      29.93F HX  99
GRANBURY       SUNNY     98  64  32 N3        29.91F HX 101
$$

TXZ083>090-098>101-113>116-127>130-139>142-154-155-272100-
WESTERN NORTH TEXAS

CITY           SKY/WX    TMP DP  RH WIND       PRES   REMARKS
WICHITA FALLS  CLOUDY    85  75  72 W5        29.90F HX  93
WF-KICKAPOO    MOSUNNY   95  63  34 N10G21    29.92F HX  96
VERNON         SUNNY     97  56  25 NE6       29.93F HX  95
ABILENE        CLOUDY    84  66  54 E14       29.97F
ABILENE-DYESS  PTSUNNY   89  71  54 VRB1      29.94F HX  95
CISCO          MOSUNNY   95  64  36 VRB5      29.97F HX  97
GRAHAM         MOSUNNY   97  67  37 E5        29.90F HX 102
MINERAL WELLS  CLOUDY    97  69  40 SE8       29.90F HX 103
STEPHENVILLE   MOSUNNY   96  65  36 E8        29.96F HX  98
COMANCHE       MOSUNNY   95  66  37 CALM      29.95F HX  98
BROWNWOOD      LGT RAIN  95  63  34 E5        29.94F HX  96
COLEMAN        MOSUNNY   93  61  34 E7        29.95F HX  93
$$

TXZ143>147-156>162-174-175-272100-
CENTRAL TEXAS

CITY           SKY/WX    TMP DP  RH WIND       PRES   REMARKS
WACO           MOSUNNY   96  66  37 SE8       29.91F HX  99
WACO-MCGREGOR  MOSUNNY   96  71  44 VRB6      29.91F HX 103
HILLSBORO      PTSUNNY   92  69  46 SE5       29.91F HX  96
CORSICANA      MOSUNNY   94  71  47 VRB6      29.92F HX 101
MEXIA          SUNNY     94  69  44 CALM      29.91F HX  99
HEARNE         PTSUNNY   91  72  53 SE10      29.94F HX  99
CAMERON        MOSUNNY   95  70  44 SW9G17    29.92F HX 100
TEMPLE         MOSUNNY   94  71  47 S13       29.93F HX 101
KILLEEN        CLOUDY    88  71  57 SE16      29.93F HX  94
KILLEEN-SKYLRK CLOUDY    93  74  53 S15G21    29.93F HX 103
FORT HOOD      CLOUDY    86  74  67 SW8       29.91F HX  93
HAMILTON       MOSUNNY   96  66  37 S8        29.95F HX  99
$$

TXZ095>097-106>112-122>126-135>138-148>153-164>167-272100-
EAST TEXAS

CITY           SKY/WX    TMP DP  RH WIND       PRES   REMARKS
PARIS          MOSUNNY   93  70  46 NW10      29.91F HX  99
SULPHUR SPRNGS CLOUDY    93  69  44 SW7       29.93F HX  98
MOUNT PLEASANT MOSUNNY   97  66  36 SW7       29.90S HX 100
GILMER         MOSUNNY   95  68  40 S5        29.90S HX  99
MINEOLA        SUNNY     95  72  46 S6        29.92S HX 103
TYLER          SUNNY     95  69  42 S5        29.92F HX 100
LONGVIEW       MOSUNNY   94  71  47 W6        29.90F HX 101
MARSHALL       MOSUNNY   92  70  47 S6        29.93S HX  97
ATHENS         SUNNY     91  68  46 SW3       29.91F HX  95
PALESTINE      SUNNY     92  72  50 SW9       29.94F HX 100
JACKSONVILLE   MOSUNNY   92  69  46 S6        29.96F HX  98
HENDERSON      MOSUNNY   91  71  50 SW6       29.93F HX  98
CENTER         CLOUDY    81  77  88 S17G28    29.98S
NACOGDOCHES    CLOUDY   N/A N/A N/A S17G24    29.97S
LUFKIN         CLOUDY    79  71  76 SW10G20   29.99S
$$

SUPPLEMENTAL OBSERVATIONS (CENTRAL)

CITY           SKY/WX    TMP DP  RH WIND       PRES   REMARKS
$$

SUPPLEMENTAL OBSERVATIONS (WEST)

CITY           SKY/WX    TMP DP  RH WIND       PRES   REMARKS
$$

SUPPLEMENTAL OBSERVATIONS (EAST)

CITY           SKY/WX    TMP DP  RH WIND       PRES   REMARKS
$$

SUPPLEMENTAL OBSERVATIONS ARE A COLLECTION OF AUTOMATED INSTRUMENTS
THAT ARE MAINTAINED BY A VARIETY OF FEDERAL AND STATE AGENCIES.
CERTAIN ELEMENTS...SUCH AS HUMIDITY VALUES AND SUSTAINED WIND
SPEEDS...MAY BE APPROXIMATED.





USA.gov is the U.S. government's official web portal to all federal, state and local government web resources and services.